Wind_Speed
2 7 12 18 16 5 1 4 8 3 1 3 11 13 12 6 5 7 6 6 6 6 5 7 8 9 10 11 13 15 17 15 14 15 15 16 18 17 18 19 19 18 17 16
4 13 15 2 9 8 6 9 13 5 3 5 9 14 15 10 7 7 9 9 9 8 7 8 9 10 11 12 13 14 15 14 14 13 15 15 17 18 18 19 21 21 19 19
13 2 7 9 8 11 11 13 12 9 2 4 6 15 19 6 6 7 8 10 11 12 11 9 10 10 10 11 12 18 19 20 20 20 22 23 20 18 17 18 22 24 23 23
9 4 7 11 12 13 15 13 9 7 4 10 3 8 4 8 10 11 12 13 13 12 10 11 12 11 10 10 11 14 18 20 20 20 19 17 17 19 16 16 18 21 22 22
6 10 11 11 8 12 6 5 10 8 10 6 8 7 4 3 11 15 15 14 13 11 10 10 11 10 9 9 11 14 18 20 20 20 20 21 22 18 16 15 17 19 20 20
4 2 4 5 3 4 13 7 5 2 3 9 16 13 6 7 8 12 16 16 16 14 12 11 9 8 8 8 11 14 18 20 19 22 21 21 21 18 17 13 13 13 14 15
4 9 4 4 5 3 6 10 4 5 6 8 2 11 12 8 8 9 22 21 19 16 14 13 14 12 10 9 11 13 16 18 19 22 21 20 18 17 16 13 11 12 11 13
10 8 15 13 18 9 15 18 6 7 6 3 2 8 5 1 4 5 15 19 19 18 15 14 17 15 14 12 12 14 16 18 18 20 21 19 18 15 14 13 12 12 11 11
10 7 3 4 3 13 8 11 3 4 1 3 6 4 6 4 5 5 12 17 19 19 17 16 20 19 17 16 15 16 16 16 16 18 18 18 17 15 15 13 11 11 10 9
4 5 2 3 4 1 6 11 5 5 5 6 4 5 8 9 13 11 14 18 19 18 18 16 20 19 17 17 16 15 15 16 17 17 16 16 16 14 13 11 10 10 8 6
6 4 3 5 12 18 7 7 6 3 4 4 3 5 5 11 15 17 17 19 21 21 19 17 21 21 20 18 17 16 15 16 16 16 16 16 15 14 12 10 9 8 6 4
9 3 6 11 0 2 12 11 15 7 6 4 2 6 5 4 7 12 15 17 19 19 18 20 23 23 22 21 19 19 18 17 17 17 18 17 16 15 12 10 8 6 3 2
12 4 4 4 4 2 8 10 11 8 2 11 7 5 3 3 5 8 12 15 17 19 19 18 23 23 23 23 21 21 21 20 19 21 21 18 17 16 14 11 8 5 2 1
15 9 13 16 6 10 11 16 17 17 11 14 19 8 7 9 10 10 12 14 18 19 19 18 18 23 23 22 23 23 22 22 22 23 21 20 19 17 15 13 9 6 3 3
12 13 21 26 15 7 6 17 22 25 31 16 21 18 15 17 15 16 16 14 17 19 19 19 17 21 22 22 23 23 23 24 25 27 23 22 20 18 17 14 11 7 6 6
3 12 17 19 16 12 10 15 27 29 27 24 15 15 8 14 7 10 13 16 18 19 18 16 15 19 21 24 25 24 25 26 28 26 26 23 22 22 19 17 13 11 9 8
12 12 7 18 20 3 7 32 20 21 21 23 21 15 7 7 12 13 14 16 18 17 17 15 14 18 19 21 23 27 29 26 33 35 33 31 26 24 22 19 16 14 12 12
7 10 5 3 7 10 7 1 17 18 11 11 1 4 10 6 6 5 8 13 12 14 13 10 13 14 14 16 20 21 25 29 32 34 35 32 29 28 25 22 20 17 14 13
2 8 4 5 9 7 1 4 8 13 12 10 12 5 5 5 4 4 6 6 10 11 11 12 14 12 14 17 17 21 25 26 27 32 35 32 32 31 28 26 22 18 15 14
1 3 7 4 6 10 2 5 3 3 6 7 10 9 9 7 6 7 10 8 7 10 12 12 11 12 13 15 17 19 22 24 28 31 31 32 33 32 31 25 21 18 17 16
5 3 12 7 6 4 2 5 3 7 3 3 8 9 12 7 4 4 10 7 9 11 11 9 11 16 18 17 19 21 22 25 27 25 26 27 28 29 27 23 21 18 17 16
10 9 5 3 5 10 6 6 8 3 3 4 5 8 10 5 7 8 8 7 8 9 10 14 16 21 22 21 23 23 24 27 25 24 24 25 26 25 24 22 20 18 17 16
5 4 5 8 4 2 11 3 3 2 5 5 6 7 8 9 7 9 7 6 7 11 12 12 17 20 20 22 26 27 29 27 24 22 24 24 24 23 22 21 20 17 17 16
4 1 0 2 2 2 10 2 1 3 4 4 3 5 8 9 8 8 7 7 7 11 12 13 12 18 23 27 30 30 25 22 22 23 23 23 24 23 22 20 19 19 18 15
1 7 5 1 1 3 4 5 6 6 3 5 4 6 9 6 6 7 6 5 9 13 14 13 16 21 27 26 31 26 24 22 21 22 22 22 22 21 19 20 19 19 19 19
5 6 5 3 7 4 9 16 12 8 8 7 7 4 4 6 8 7 6 13 14 16 15 15 18 20 21 18 20 21 21 21 22 21 20 20 19 18 18 16 17 21 21 18
Wind_Direction
146 205 215 214 214 238 179 223 248 185 162 253 245 257 206 201 192 186 171 157 132 98 72 61 62 71 83 86 89 94 100 101 98 94 88 82 77 71 68 68 69 62 58 56
159 229 230 129 193 201 220 243 248 266 198 227 253 254 257 201 216 205 180 167 149 136 116 86 71 73 82 90 95 96 94 92 99 105 105 94 89 77 76 73 72 70 68 67
208 172 185 174 170 196 225 227 237 256 143 218 277 263 246 203 195 181 179 164 160 155 140 122 100 88 88 87 97 108 109 107 104 103 106 105 99 89 76 68 70 71 72 69
238 163 154 186 210 201 235 219 235 236 238 262 218 281 242 208 205 197 183 181 169 163 149 137 127 109 93 87 96 106 114 118 120 124 125 116 108 101 90 86 83 79 76 75
203 180 190 204 210 187 245 148 210 224 239 269 209 263 236 178 226 206 193 186 176 168 160 147 133 117 110 110 107 106 109 108 113 114 111 110 107 107 108 101 92 85 82 79
273 49 214 212 95 180 134 100 79 105 206 250 231 217 215 204 217 178 186 187 179 172 167 156 146 138 128 118 116 115 115 112 116 117 115 116 119 121 119 115 100 87 79 71
214 218 182 185 140 88 184 164 200 225 210 247 142 209 243 212 173 185 185 184 180 176 174 168 167 165 155 146 134 124 123 121 124 123 121 121 119 120 118 116 112 104 88 78
201 228 191 193 215 183 195 189 197 216 205 206 141 226 242 334 119 133 185 177 173 177 178 179 177 175 172 168 157 144 140 134 136 131 128 128 125 121 113 111 107 100 96 88
192 242 177 193 142 173 180 212 185 104 172 261 204 240 238 167 184 166 167 174 181 182 184 185 182 181 178 179 174 162 155 149 145 139 137 132 129 125 124 122 118 111 105 99
202 245 250 145 138 226 201 146 176 219 216 232 206 246 225 202 203 179 181 190 187 186 188 187 186 184 184 185 181 172 167 163 154 150 144 140 139 135 133 131 128 123 118 109
146 222 137 149 209 190 169 188 213 222 219 227 256 233 217 197 189 188 194 194 189 188 189 188 189 188 189 185 184 180 179 171 165 162 157 154 151 148 151 150 141 133 122 98
192 132 199 205 56 296 232 217 195 207 190 238 296 250 161 163 175 193 190 190 193 193 191 191 190 190 190 190 186 186 188 183 179 174 172 171 167 169 167 164 157 145 138 77
168 187 229 247 210 187 219 203 222 230 55 209 197 227 167 173 219 203 191 185 189 191 193 193 195 194 194 194 191 191 195 191 186 184 185 183 183 184 183 181 177 173 190 325
162 169 204 227 229 156 205 205 202 204 228 225 232 232 198 201 202 199 203 192 190 192 194 197 198 200 201 198 196 196 198 197 193 194 194 194 195 196 193 192 194 202 235 295
184 216 216 237 249 213 220 205 199 209 221 213 243 226 198 191 196 196 198 190 186 194 198 200 200 202 201 202 202 201 204 200 198 199 201 205 203 202 203 204 210 222 240 266
220 236 220 239 226 224 235 229 208 213 222 234 241 232 194 194 165 180 189 183 194 199 199 198 200 200 203 206 205 204 206 204 202 203 209 208 209 210 213 216 220 229 242 257
182 212 185 233 225 191 267 233 214 217 222 221 220 236 138 171 193 198 189 191 198 195 191 189 191 202 208 209 205 206 206 207 210 211 217 219 219 218 221 222 225 232 242 255
177 202 198 230 118 219 266 275 212 211 198 213 221 165 167 178 183 166 186 192 189 189 182 186 198 199 204 208 211 211 207 210 216 218 223 225 224 223 224 226 229 236 247 256
161 172 165 194 211 313 239 195 173 185 230 193 215 147 135 107 110 206 193 184 189 182 182 192 193 195 200 206 206 204 209 214 218 223 227 228 227 226 226 228 230 237 247 255
212 254 211 150 216 226 239 168 183 158 245 192 178 147 150 149 187 220 175 171 158 161 174 190 195 198 200 203 199 198 206 210 219 225 231 232 231 229 229 229 231 238 246 254
159 178 218 190 220 273 205 151 178 172 237 135 162 158 160 188 217 130 151 163 166 179 191 196 203 205 207 201 200 204 211 219 232 233 233 233 230 228 227 227 230 238 245 254
175 170 188 159 222 248 140 104 180 170 13 129 143 167 179 137 145 145 148 151 164 181 191 207 209 215 215 211 207 212 218 230 230 232 230 228 225 221 222 225 231 237 246 257
210 210 184 197 186 110 173 66 160 181 154 189 162 169 159 147 172 162 169 166 179 198 210 220 226 234 232 221 214 217 228 232 232 230 227 224 219 218 222 223 229 238 248 253
227 162 68 173 115 155 182 48 120 207 190 152 160 138 155 171 173 177 161 172 179 205 221 235 236 241 239 226 223 228 236 241 235 231 226 220 217 217 222 226 232 239 242 247
144 141 136 7 127 115 201 224 201 202 165 140 138 159 182 156 165 172 186 190 205 224 232 238 236 241 245 238 232 237 242 243 234 228 222 216 215 219 225 231 237 242 251 252
188 153 172 193 182 164 198 210 198 194 197 187 171 172 184 174 194 182 205 212 221 225 231 229 232 237 245 247 240 240 242 236 226 215 211 213 215 221 225 232 245 249 251 252
Height
833 830 829 819 821 826 829 832 828 830 833 835 826 823 825 838 842 843 846 849 852 856 859 858 856 854 853 852 851 850 851 851 852 854 857 858 859 861 861 861 861 862 862 862
837 828 815 827 830 832 835 834 829 831 836 837 827 827 818 837 835 838 843 847 851 856 858 859 859 858 856 854 852 851 853 854 854 855 856 860 863 866 867 866 865 865 865 864
818 816 820 825 834 836 832 832 826 830 839 840 838 824 816 833 841 844 845 846 849 850 853 857 859 860 859 857 855 851 851 853 856 858 859 860 863 868 872 873 871 869 869 869
819 820 825 827 826 825 827 827 831 836 839 833 838 815 811 818 831 841 844 845 847 851 854 855 856 859 860 860 859 856 854 853 853 853 855 862 867 868 874 875 876 874 873 871
810 823 823 821 816 822 820 830 832 835 834 840 834 832 796 827 823 831 839 843 847 852 856 857 859 860 860 861 861 860 856 858 858 860 862 863 867 871 873 877 878 877 876 875
814 821 819 812 824 822 834 837 842 843 839 835 819 825 791 805 802 811 833 840 844 850 855 859 862 862 862 862 862 861 860 860 862 860 862 866 868 871 873 878 879 879 880 880
818 815 816 818 821 831 826 827 836 842 841 823 833 827 782 788 803 805 816 828 838 847 852 855 858 861 863 865 865 864 863 862 863 862 865 867 871 873 874 877 878 877 879 879
808 808 808 808 800 811 823 812 818 829 826 808 844 813 788 801 810 813 812 822 833 841 848 853 856 859 862 864 864 863 863 864 865 864 864 867 871 875 876 879 880 881 881 882
802 801 804 806 807 803 819 821 814 836 870 824 795 798 791 811 814 818 819 826 831 836 842 847 850 853 858 861 862 862 863 865 866 866 866 867 870 873 875 879 881 881 881 882
785 794 806 809 806 810 804 802 822 819 820 810 795 797 766 796 797 813 820 821 826 832 839 844 847 851 856 859 861 862 864 864 865 868 869 871 873 875 878 880 879 879 880 880
786 792 808 808 799 788 805 804 804 796 799 794 787 772 766 768 780 796 804 810 815 824 831 836 842 846 850 853 857 861 865 865 865 868 869 872 873 874 878 880 880 879 879 880
777 793 798 792 795 798 783 780 785 780 804 802 795 762 778 778 781 786 793 803 811 820 826 831 836 842 845 849 853 857 862 863 864 866 868 870 871 875 876 878 878 879 878 878
772 788 795 790 794 801 789 785 779 774 792 783 784 755 783 786 786 788 790 798 806 814 821 827 832 835 840 844 848 851 857 858 859 861 865 869 869 871 871 873 875 875 877 874
752 770 766 749 744 754 777 770 775 772 772 759 756 753 777 776 779 787 792 793 798 806 814 820 827 829 835 839 842 846 850 854 857 860 862 864 865 868 868 868 870 870 872 870
752 762 756 743 745 754 753 752 765 761 742 752 731 750 755 759 768 770 775 785 794 800 805 810 816 821 828 833 836 838 844 846 849 852 856 859 861 862 865 864 867 867 867 867
758 749 751 748 745 756 755 751 745 744 740 739 738 742 742 751 762 770 774 782 788 791 797 804 811 816 819 823 827 832 838 840 844 846 851 855 857 858 859 861 862 863 864 864
751 747 759 738 743 766 769 728 743 734 731 731 734 730 753 762 763 763 768 776 778 785 791 798 803 808 812 815 818 823 828 835 837 840 844 848 851 852 855 856 857 858 859 859
747 751 756 747 768 749 719 738 726 733 736 745 751 754 751 754 758 763 767 770 776 783 788 794 799 803 806 809 813 817 824 827 831 835 838 840 844 846 848 850 852 853 853 853
750 746 764 752 747 724 746 743 739 735 725 740 741 752 762 767 765 765 770 771 773 779 785 790 794 799 803 806 808 811 816 821 826 829 830 832 837 840 843 843 845 846 847 848
758 752 739 762 732 716 702 733 741 734 727 737 742 753 763 765 760 752 767 771 775 777 782 787 792 795 798 802 805 809 812 816 818 820 822 825 829 832 835 838 839 841 842 843
747 748 732 740 731 727 732 742 744 733 726 738 743 751 760 759 751 757 764 770 772 776 780 785 790 791 793 797 801 804 807 810 812 816 819 821 822 824 828 831 834 836 837 837
721 729 730 737 731 721 737 746 734 733 741 742 747 750 753 756 760 762 764 769 773 777 780 783 786 788 789 792 796 798 801 804 807 810 811 814 815 818 821 825 828 830 831 830
719 711 715 715 709 733 732 733 736 738 735 743 742 746 752 754 759 763 767 770 773 778 780 781 782 784 787 789 791 794 794 799 800 803 805 808 810 813 816 819 822 824 824 824
731 728 721 723 734 734 734 739 738 740 737 739 741 745 750 753 758 764 768 770 771 774 775 778 779 780 781 784 787 789 789 792 794 796 800 802 805 808 811 814 816 816 816 817
721 725 734 737 736 737 738 739 738 739 740 740 742 743 745 749 756 759 764 765 767 771 773 774 774 775 776 778 780 785 785 786 789 792 795 798 801 804 806 808 809 809 809 810
718 720 718 718 720 720 724 723 732 735 736 738 740 743 744 747 751 755 759 760 763 766 768 770 770 770 769 774 777 778 779 780 784 787 790 793 796 798 800 801 802 802 801 802